^^
Station Historical Data
 
Daily Summary for August 12, 2020 Units:  English    Metric   Both
Daily Weekly Monthly Yearly
  Current: High: Low: Average:
Temperature: 81.9 °F 81.9 °F 70.6 °F 74.2 °F
Dew Point: 66.6 °F 67 °F 57.6 °F 61.1 °F
Humidity: 60% 68% 59% 64%
Wind Speed: 5mph 14mph 0mph 5.9mph
Wind Gust: 5mph 16mph - -
WindSW - - WSW
Pressure: 30.04 in 30.06 in 29.94 in -
Precipitation: 0.00 in      
 
 
Tabular Data for August 12, 2020
Time Temperature Dew Point Pressure Wind Wind Speed Wind Gust Humidity Rainfall Rate (Hourly) solar
00:00 74.1 °F 58.9 °F 29.94 in NW 1 mph 1 mph 59% 0.00 in 0 W/m2
00:05 73.9 °F 59.1 °F 29.95 in NW 1 mph 1 mph 60% 0.00 in 0 W/m2
00:10 73.8 °F 59.5 °F 29.94 in WNW 1 mph 1 mph 61% 0.00 in 0 W/m2
00:15 73.6 °F 59.3 °F 29.95 in West 1 mph 1 mph 61% 0.00 in 0 W/m2
00:20 73.4 °F 60 °F 29.95 in Calm     63% 0.00 in 0 W/m2
00:25 73.2 °F 59.8 °F 29.95 in NW 1 mph 1 mph 63% 0.00 in 0 W/m2
00:30 73 °F 59.7 °F 29.95 in North 1 mph 1 mph 63% 0.00 in 0 W/m2
00:35 72.8 °F 59 °F 29.95 in West 1 mph 2 mph 62% 0.00 in 0 W/m2
00:40 72.7 °F 58.9 °F 29.95 in NW 1 mph 1 mph 62% 0.00 in 0 W/m2
00:45 72.6 °F 58.4 °F 29.95 in NW 1 mph 1 mph 61% 0.00 in 0 W/m2
00:50 72.6 °F 58.4 °F 29.95 in WNW 1 mph 2 mph 61% 0.00 in 0 W/m2
00:55 72.7 °F 58 °F 29.95 in WNW 1 mph 2 mph 60% 0.00 in 0 W/m2
01:00 72.8 °F 58.1 °F 29.95 in WNW 2 mph 3 mph 60% 0.00 in 0 W/m2
01:05 72.8 °F 57.6 °F 29.94 in West 1 mph 3 mph 59% 0.00 in 0 W/m2
01:10 72.9 °F 58.2 °F 29.95 in WNW 1 mph 1 mph 60% 0.00 in 0 W/m2
01:15 72.9 °F 58.7 °F 29.95 in NW 1 mph 1 mph 61% 0.00 in 0 W/m2
01:20 72.9 °F 58.7 °F 29.95 in NW 1 mph 1 mph 61% 0.00 in 0 W/m2
01:25 72.8 °F 58.1 °F 29.96 in WNW 1 mph 1 mph 60% 0.00 in 0 W/m2
01:30 72.8 °F 58.1 °F 29.96 in WNW 2 mph 2 mph 60% 0.00 in 0 W/m2
01:35 72.7 °F 58 °F 29.96 in NW 1 mph 2 mph 60% 0.00 in 0 W/m2
01:40 72.6 °F 57.9 °F 29.96 in NW 1 mph 1 mph 60% 0.00 in 0 W/m2
01:45 72.6 °F 58.4 °F 29.96 in WNW 1 mph 2 mph 61% 0.00 in 0 W/m2
01:50 72.6 °F 58.8 °F 29.97 in WNW 1 mph 1 mph 62% 0.00 in 0 W/m2
01:55 72.6 °F 57.9 °F 29.97 in WNW 2 mph 2 mph 60% 0.00 in 0 W/m2
02:00 72.6 °F 58.4 °F 29.97 in SSW 2 mph 4 mph 61% 0.00 in 0 W/m2
02:05 72.7 °F 58.5 °F 29.97 in NW 2 mph 4 mph 61% 0.00 in 0 W/m2
02:10 72.7 °F 58 °F 29.97 in North 2 mph 2 mph 60% 0.00 in 0 W/m2
02:15 72.7 °F 58 °F 29.97 in NE 2 mph 2 mph 60% 0.00 in 0 W/m2
02:20 72.7 °F 58.5 °F 29.98 in NW 1 mph 2 mph 61% 0.00 in 0 W/m2
02:25 72.8 °F 58.6 °F 29.98 in NE 1 mph 2 mph 61% 0.00 in 0 W/m2
02:30 72.7 °F 58 °F 29.98 in WNW 1 mph 4 mph 60% 0.00 in 0 W/m2
02:35 72.6 °F 58.4 °F 29.98 in NW 1 mph 4 mph 61% 0.00 in 0 W/m2
02:40 72.6 °F 58.4 °F 29.98 in NW 1 mph 2 mph 61% 0.00 in 0 W/m2
02:45 72.5 °F 57.8 °F 29.98 in WNW 1 mph 2 mph 60% 0.00 in 0 W/m2
02:50 72.5 °F 58.3 °F 29.98 in NW 1 mph 2 mph 61% 0.00 in 0 W/m2
02:55 72.3 °F 58.1 °F 29.98 in NW 2 mph 2 mph 61% 0.00 in 0 W/m2
03:00 72.3 °F 58.5 °F 29.98 in WNW 2 mph 2 mph 62% 0.00 in 0 W/m2
03:05 72.2 °F 58.9 °F 29.98 in NW 1 mph 2 mph 63% 0.00 in 0 W/m2
03:10 72.1 °F 58.8 °F 29.99 in WNW 1 mph 1 mph 63% 0.00 in 0 W/m2
03:15 72 °F 59.2 °F 29.99 in WNW 1 mph 1 mph 64% 0.00 in 0 W/m2
03:20 71.9 °F 59.1 °F 29.99 in NW 1 mph 1 mph 64% 0.00 in 0 W/m2
03:25 71.9 °F 59.5 °F 29.99 in NW 1 mph 1 mph 65% 0.00 in 0 W/m2
03:30 71.7 °F 59.3 °F 29.99 in WNW 1 mph 2 mph 65% 0.00 in 0 W/m2
03:35 71.7 °F 59.3 °F 29.99 in NW 1 mph 2 mph 65% 0.00 in 0 W/m2
03:40 71.6 °F 59.2 °F 29.99 in NW 1 mph 1 mph 65% 0.00 in 0 W/m2
03:45 71.5 °F 59.1 °F 29.99 in NW 1 mph 1 mph 65% 0.00 in 0 W/m2
03:50 71.4 °F 59.4 °F 30.00 in North 1 mph 1 mph 66% 0.00 in 0 W/m2
03:55 71.4 °F 59 °F 29.99 in NW 1 mph 1 mph 65% 0.00 in 0 W/m2
04:00 71.3 °F 58.9 °F 29.99 in North 1 mph 1 mph 65% 0.00 in 0 W/m2
04:05 71.3 °F 58.9 °F 30.00 in WNW 1 mph 1 mph 65% 0.00 in 0 W/m2
04:10 71.2 °F 59.3 °F 30.00 in WNW 1 mph 1 mph 66% 0.00 in 0 W/m2
04:15 71.1 °F 59.2 °F 30.00 in WNW 1 mph 1 mph 66% 0.00 in 0 W/m2
04:20 71.1 °F 59.2 °F 30.00 in North 1 mph 1 mph 66% 0.00 in 0 W/m2
04:25 71 °F 59.1 °F 30.00 in West 1 mph 2 mph 66% 0.00 in 0 W/m2
04:30 71 °F 58.6 °F 30.00 in WNW 2 mph 2 mph 65% 0.00 in 0 W/m2
04:35 70.9 °F 58.5 °F 30.00 in West 2 mph 2 mph 65% 0.00 in 0 W/m2
04:40 70.8 °F 58.4 °F 30.00 in NW 1 mph 2 mph 65% 0.00 in 0 W/m2
04:45 70.7 °F 58.4 °F 30.00 in West 1 mph 2 mph 65% 0.00 in 0 W/m2
04:50 70.7 °F 58.4 °F 30.00 in WNW 1 mph 1 mph 65% 0.00 in 0 W/m2
04:55 70.7 °F 58.8 °F 30.00 in WNW 2 mph 2 mph 66% 0.00 in 0 W/m2
05:00 70.7 °F 58.4 °F 30.01 in NW 2 mph 2 mph 65% 0.00 in 0 W/m2
05:05 70.6 °F 58.3 °F 30.01 in NW 2 mph 2 mph 65% 0.00 in 0 W/m2
05:10 70.6 °F 58.7 °F 30.01 in WNW 2 mph 2 mph 66% 0.00 in 0 W/m2
05:15 70.6 °F 58.7 °F 30.01 in NW 2 mph 2 mph 66% 0.00 in 0 W/m2
05:20 70.6 °F 58.7 °F 30.01 in West 2 mph 2 mph 66% 0.00 in 0 W/m2
05:25 70.6 °F 58.3 °F 30.01 in WNW 2 mph 3 mph 65% 0.00 in 0 W/m2
05:30 70.6 °F 58.7 °F 30.01 in WNW 2 mph 2 mph 66% 0.00 in 0 W/m2
05:35 70.7 °F 58.8 °F 30.01 in WNW 2 mph 2 mph 66% 0.00 in 0 W/m2
05:40 70.7 °F 59.2 °F 30.01 in NW 2 mph 2 mph 67% 0.00 in 0 W/m2
05:45 70.7 °F 59.2 °F 30.01 in NW 2 mph 2 mph 67% 0.00 in 0 W/m2
05:50 70.7 °F 58.8 °F 30.02 in WNW 2 mph 2 mph 66% 0.00 in 0 W/m2
05:55 70.7 °F 58.8 °F 30.02 in SW 2 mph 6 mph 66% 0.00 in 0 W/m2
06:00 70.8 °F 59.3 °F 30.02 in WSW 2 mph 4 mph 67% 0.00 in 0 W/m2
06:05 70.8 °F 59.3 °F 30.02 in WSW 3 mph 4 mph 67% 0.00 in 0 W/m2
06:10 70.9 °F 59.8 °F 30.02 in WNW 3 mph 3 mph 68% 0.00 in 0 W/m2
06:15 70.9 °F 59.8 °F 30.02 in SW 3 mph 4 mph 68% 0.00 in 0 W/m2
06:20 70.9 °F 59.4 °F 30.02 in West 3 mph 3 mph 67% 0.00 in 0 W/m2
06:25 70.9 °F 59.4 °F 30.03 in WNW 3 mph 3 mph 67% 0.00 in 0 W/m2
06:30 70.9 °F 59.4 °F 30.03 in WNW 3 mph 3 mph 67% 0.00 in 0 W/m2
06:35 70.9 °F 59 °F 30.03 in WNW 3 mph 3 mph 66% 0.00 in 5 W/m2
06:40 70.9 °F 59.4 °F 30.03 in WNW 3 mph 3 mph 67% 0.00 in 7 W/m2
06:45 70.9 °F 59.8 °F 30.03 in WNW 3 mph 3 mph 68% 0.00 in 9 W/m2
06:50 70.9 °F 59.8 °F 30.03 in WNW 4 mph 4 mph 68% 0.00 in 11 W/m2
06:55 70.9 °F 59.4 °F 30.04 in NW 4 mph 4 mph 67% 0.00 in 14 W/m2
07:00 70.8 °F 58.9 °F 30.04 in West 3 mph 6 mph 66% 0.00 in 16 W/m2
07:05 70.8 °F 58.4 °F 30.04 in WSW 4 mph 6 mph 65% 0.00 in 18 W/m2
07:10 70.8 °F 58.4 °F 30.04 in WNW 4 mph 4 mph 65% 0.00 in 19 W/m2
07:15 70.9 °F 58.5 °F 30.04 in NW 4 mph 4 mph 65% 0.00 in 21 W/m2
07:20 70.9 °F 58.5 °F 30.04 in WSW 4 mph 4 mph 65% 0.00 in 23 W/m2
07:25 71 °F 58.6 °F 30.04 in West 4 mph 4 mph 65% 0.00 in 23 W/m2
07:30 71 °F 57.8 °F 30.04 in WNW 4 mph 4 mph 63% 0.00 in 25 W/m2
07:35 71.1 °F 58.3 °F 30.05 in West 4 mph 4 mph 64% 0.00 in 26 W/m2
07:40 71.2 °F 58 °F 30.04 in NW 4 mph 4 mph 63% 0.00 in 33 W/m2
07:45 71.3 °F 58.1 °F 30.05 in West 5 mph 5 mph 63% 0.00 in 32 W/m2
07:50 71.4 °F 58.1 °F 30.05 in WSW 5 mph 5 mph 63% 0.00 in 35 W/m2
07:55 71.5 °F 58.2 °F 30.05 in WSW 5 mph 5 mph 63% 0.00 in 37 W/m2
08:00 71.5 °F 57.8 °F 30.05 in WSW 5 mph 9 mph 62% 0.00 in 32 W/m2
08:05 71.7 °F 58.4 °F 30.05 in WSW 5 mph 9 mph 63% 0.00 in 33 W/m2
08:10 71.8 °F 58.5 °F 30.05 in NW 5 mph 5 mph 63% 0.00 in 35 W/m2
08:15 71.9 °F 58.2 °F 30.05 in West 5 mph 6 mph 62% 0.00 in 37 W/m2
08:20 72 °F 58.3 °F 30.05 in West 6 mph 7 mph 62% 0.00 in 47 W/m2
08:25 72.1 °F 59.2 °F 30.05 in WSW 6 mph 8 mph 64% 0.00 in 244 W/m2
08:30 72.2 °F 59.8 °F 30.05 in WSW 7 mph 7 mph 65% 0.00 in 257 W/m2
08:35 72.3 °F 58.5 °F 30.05 in WSW 6 mph 10 mph 62% 0.00 in 271 W/m2
08:40 72.3 °F 58.5 °F 30.05 in WSW 6 mph 8 mph 62% 0.00 in 285 W/m2
08:45 72.5 °F 59.6 °F 30.05 in West 6 mph 9 mph 64% 0.00 in 301 W/m2
08:50 72.6 °F 59.7 °F 30.05 in West 7 mph 7 mph 64% 0.00 in 316 W/m2
08:55 72.8 °F 59.5 °F 30.05 in West 7 mph 8 mph 63% 0.00 in 332 W/m2
09:00 72.8 °F 59 °F 30.05 in West 7 mph 7 mph 62% 0.00 in 348 W/m2
09:05 72.9 °F 58.7 °F 30.05 in West 8 mph 8 mph 61% 0.00 in 360 W/m2
09:10 73 °F 59.2 °F 30.06 in WSW 9 mph 9 mph 62% 0.00 in 378 W/m2
09:15 73.1 °F 60.2 °F 30.06 in WSW 8 mph 12 mph 64% 0.00 in 390 W/m2
09:20 73.3 °F 59.5 °F 30.06 in West 10 mph 10 mph 62% 0.00 in 403 W/m2
09:25 73.4 °F 59.1 °F 30.06 in WSW 11 mph 11 mph 61% 0.00 in 417 W/m2
09:30 73.5 °F 59.7 °F 30.06 in WSW 10 mph 14 mph 62% 0.00 in 431 W/m2
09:35 73.8 °F 60.9 °F 30.06 in WSW 11 mph 16 mph 64% 0.00 in 441 W/m2
09:40 74 °F 61.9 °F 30.06 in West 13 mph 13 mph 66% 0.00 in 455 W/m2
09:45 74.1 °F 61.1 °F 30.05 in WSW 14 mph 14 mph 64% 0.00 in 468 W/m2
09:50 74.1 °F 61.6 °F 30.05 in WSW 13 mph 13 mph 65% 0.00 in 480 W/m2
09:55 74.2 °F 60.3 °F 30.05 in WSW 12 mph 14 mph 62% 0.00 in 490 W/m2
10:00 74.2 °F 59.4 °F 30.05 in WSW 12 mph 13 mph 60% 0.00 in 506 W/m2
10:05 74.2 °F 59.4 °F 30.05 in WSW 13 mph 13 mph 60% 0.00 in 513 W/m2
10:10 74.2 °F 59.9 °F 30.05 in WSW 12 mph 12 mph 61% 0.00 in 531 W/m2
10:15 74.3 °F 60.9 °F 30.05 in WSW 11 mph 14 mph 63% 0.00 in 541 W/m2
10:20 74.3 °F 61.3 °F 30.05 in WSW 12 mph 13 mph 64% 0.00 in 554 W/m2
10:25 74.3 °F 60.9 °F 30.05 in SW 12 mph 13 mph 63% 0.00 in 564 W/m2
10:30 74.4 °F 61.9 °F 30.05 in WSW 11 mph 11 mph 65% 0.00 in 575 W/m2
10:35 74.5 °F 62 °F 30.05 in West 12 mph 12 mph 65% 0.00 in 585 W/m2
10:40 74.4 °F 61.9 °F 30.05 in WSW 12 mph 12 mph 65% 0.00 in 596 W/m2
10:45 74.6 °F 62.5 °F 30.05 in WSW 12 mph 12 mph 66% 0.00 in 603 W/m2
10:50 74.6 °F 62.1 °F 30.05 in WSW 11 mph 11 mph 65% 0.00 in 615 W/m2
10:55 74.6 °F 62.1 °F 30.05 in WSW 11 mph 11 mph 65% 0.00 in 629 W/m2
11:00 74.7 °F 63.4 °F 30.05 in WSW 11 mph 11 mph 68% 0.00 in 642 W/m2
11:05 74.8 °F 62.7 °F 30.05 in WSW 12 mph 12 mph 66% 0.00 in 650 W/m2
11:10 74.8 °F 62.7 °F 30.05 in SW 11 mph 11 mph 66% 0.00 in 657 W/m2
11:15 74.9 °F 61.9 °F 30.05 in WSW 11 mph 11 mph 64% 0.00 in 670 W/m2
11:20 74.9 °F 63.6 °F 30.05 in SW 12 mph 12 mph 68% 0.00 in 679 W/m2
11:25 74.9 °F 62.8 °F 30.05 in WSW 12 mph 13 mph 66% 0.00 in 691 W/m2
11:30 75 °F 63.7 °F 30.05 in WSW 12 mph 12 mph 68% 0.00 in 701 W/m2
11:35 75.1 °F 63.4 °F 30.05 in SW 12 mph 13 mph 67% 0.00 in 708 W/m2
11:40 75 °F 62.4 °F 30.05 in SW 12 mph 13 mph 65% 0.00 in 717 W/m2
11:45 75.2 °F 63.1 °F 30.05 in WSW 12 mph 13 mph 66% 0.00 in 726 W/m2
11:50 75.4 °F 63.2 °F 30.05 in WSW 12 mph 13 mph 66% 0.00 in 735 W/m2
11:55 75.6 °F 63.4 °F 30.05 in SW 12 mph 13 mph 66% 0.00 in 742 W/m2
12:00 75.8 °F 63.6 °F 30.05 in SW 11 mph 11 mph 66% 0.00 in 749 W/m2
12:05 75.9 °F 64.2 °F 30.05 in SW 11 mph 12 mph 67% 0.00 in 758 W/m2
12:10 76 °F 63.8 °F 30.05 in SW 12 mph 12 mph 66% 0.00 in 766 W/m2
12:15 76.2 °F 64 °F 30.05 in WSW 12 mph 12 mph 66% 0.00 in 773 W/m2
12:20 76.5 °F 63.4 °F 30.05 in WSW 11 mph 11 mph 64% 0.00 in 779 W/m2
12:25 76.7 °F 64 °F 30.05 in WSW 11 mph 11 mph 65% 0.00 in 784 W/m2
12:30 77 °F 63.9 °F 30.05 in WSW 11 mph 11 mph 64% 0.00 in 789 W/m2
12:35 77.1 °F 63.5 °F 30.05 in WSW 11 mph 11 mph 63% 0.00 in 795 W/m2
12:40 77.1 °F 63.5 °F 30.05 in WSW 11 mph 11 mph 63% 0.00 in 798 W/m2
12:45 77.5 °F 64.8 °F 30.05 in WSW 11 mph 11 mph 65% 0.00 in 803 W/m2
12:50 77.5 °F 64.8 °F 30.05 in WSW 11 mph 11 mph 65% 0.00 in 809 W/m2
12:55 77.6 °F 64.9 °F 30.05 in SW 11 mph 11 mph 65% 0.00 in 814 W/m2
13:00 77.3 °F 65.9 °F 30.05 in WSW 11 mph 11 mph 68% 0.00 in 817 W/m2
13:05 77.6 °F 64.5 °F 30.05 in WSW 11 mph 11 mph 64% 0.00 in 819 W/m2
13:10 77.9 °F 65.2 °F 30.05 in SW 11 mph 11 mph 65% 0.00 in 824 W/m2
13:15 77.8 °F 64.2 °F 30.05 in WSW 11 mph 11 mph 63% 0.00 in 828 W/m2
13:20 78 °F 65.3 °F 30.05 in WSW 10 mph 10 mph 65% 0.00 in 828 W/m2
13:25 78.1 °F 64.5 °F 30.05 in WSW 10 mph 10 mph 63% 0.00 in 831 W/m2
13:30 78.2 °F 65.5 °F 30.05 in WSW 10 mph 10 mph 65% 0.00 in 835 W/m2
13:35 77.7 °F 65.4 °F 30.05 in SW 10 mph 10 mph 66% 0.00 in 835 W/m2
13:40 78.2 °F 64.6 °F 30.05 in WSW 9 mph 11 mph 63% 0.00 in 838 W/m2
13:45 78.5 °F 65.3 °F 30.05 in WSW 9 mph 11 mph 64% 0.00 in 837 W/m2
13:50 78.4 °F 65.2 °F 30.05 in SW 10 mph 10 mph 64% 0.00 in 837 W/m2
13:55 78.8 °F 65.6 °F 30.05 in WSW 9 mph 10 mph 64% 0.00 in 837 W/m2
14:00 78.8 °F 65.1 °F 30.05 in SW 10 mph 10 mph 63% 0.00 in 837 W/m2
14:05 77.7 °F 65 °F 30.05 in SW 9 mph 10 mph 65% 0.00 in 835 W/m2
14:10 78.2 °F 65.5 °F 30.04 in WSW 9 mph 9 mph 65% 0.00 in 837 W/m2
14:15 77.8 °F 64.6 °F 30.04 in SW 9 mph 11 mph 64% 0.00 in 835 W/m2
14:20 77.6 °F 64 °F 30.04 in SW 10 mph 10 mph 63% 0.00 in 835 W/m2
14:25 77.8 °F 64.2 °F 30.04 in SW 10 mph 10 mph 63% 0.00 in 833 W/m2
14:30 77.8 °F 64.6 °F 30.03 in SW 10 mph 10 mph 64% 0.00 in 831 W/m2
14:35 78 °F 64.4 °F 30.03 in SW 10 mph 11 mph 63% 0.00 in 828 W/m2
14:40 78.4 °F 66.5 °F 30.04 in SW 9 mph 9 mph 67% 0.00 in 824 W/m2
14:45 78.7 °F 64.6 °F 30.04 in SW 8 mph 9 mph 62% 0.00 in 821 W/m2
14:50 79.2 °F 65.1 °F 30.04 in SW 8 mph 8 mph 62% 0.00 in 814 W/m2
14:55 80 °F 65.8 °F 30.04 in WSW 8 mph 10 mph 62% 0.00 in 809 W/m2
15:00 80 °F 65.8 °F 30.04 in WSW 9 mph 10 mph 62% 0.00 in 802 W/m2
15:05 79.9 °F 66.6 °F 30.04 in WSW 10 mph 10 mph 64% 0.00 in 791 W/m2
15:10 80 °F 66.3 °F 30.05 in SW 10 mph 10 mph 63% 0.00 in 789 W/m2
15:15 80.1 °F 66.4 °F 30.05 in WSW 9 mph 10 mph 63% 0.00 in 784 W/m2
15:20 80.3 °F 66.6 °F 30.05 in WSW 9 mph 9 mph 63% 0.00 in 777 W/m2
15:25 80.3 °F 65.6 °F 30.05 in WSW 9 mph 9 mph 61% 0.00 in 772 W/m2
15:30 80.4 °F 65.7 °F 30.05 in WSW 8 mph 9 mph 61% 0.00 in 761 W/m2
15:35 80.5 °F 65.3 °F 30.05 in WSW 8 mph 9 mph 60% 0.00 in 758 W/m2
15:40 80.5 °F 66.7 °F 30.05 in WSW 7 mph 7 mph 63% 0.00 in 747 W/m2
15:45 80.2 °F 66 °F 30.05 in WSW 7 mph 8 mph 62% 0.00 in 740 W/m2
15:50 80.3 °F 67 °F 30.05 in WSW 7 mph 8 mph 64% 0.00 in 731 W/m2
15:55 80.5 °F 66.3 °F 30.05 in WSW 7 mph 8 mph 62% 0.00 in 722 W/m2
16:00 80.6 °F 65.4 °F 30.05 in West 7 mph 7 mph 60% 0.00 in 714 W/m2
16:05 80.7 °F 66.5 °F 30.05 in WSW 7 mph 7 mph 62% 0.00 in 703 W/m2
16:10 80.8 °F 66.1 °F 30.05 in WSW 7 mph 7 mph 61% 0.00 in 693 W/m2
16:15 81 °F 65.8 °F 30.05 in WSW 7 mph 7 mph 60% 0.00 in 684 W/m2
16:20 81.2 °F 66.9 °F 30.05 in SW 6 mph 6 mph 62% 0.00 in 673 W/m2
16:25 81.4 °F 66.7 °F 30.05 in WSW 5 mph 6 mph 61% 0.00 in 663 W/m2
16:30 81.7 °F 66.5 °F 30.04 in WSW 5 mph 5 mph 60% 0.00 in 652 W/m2
16:35 81.9 °F 66.6 °F 30.04 in SW 5 mph 5 mph 60% 0.00 in 642 W/m2
Sand Point, Michigan, USA
Compliments of Weather Underground - 2 mb